Simultaneous Nadir Overpasses (SNOs) Predictions

Prediction of SNOs between GOES-16 and NOAA-20 Satellite Orbit:

Table of predicted SNOs for the next 14.0 days since TLE Epoch: 9/12/2025
Index Date Time (GOES-16) GOES-16 Lat,Lon NOAA-20 Lat,Lon Distance(km) Time Diff (sec)
1 09/13/2025 20:10:36 0.11,-104.67 0.88,-101.33 380.91 80
2 09/15/2025 08:32:22 -0.12,-104.65 0.32,-106.59 221.53 80
3 09/16/2025 08:10:57 -0.12,-104.64 -0.68,-102.05 294.64 80
4 09/17/2025 20:32:52 0.12,-104.65 -0.51,-107.35 307.71 80
5 09/18/2025 20:16:47 0.13,-104.65 0.56,-102.82 209.26 80
6 09/20/2025 08:38:34 -0.12,-104.64 0.64,-108.08 391.54 80
7 09/21/2025 08:17:08 -0.13,-104.64 -0.36,-103.54 125.31 80
8 09/22/2025 20:39:03 0.12,-104.66 -0.81,-108.84 476.67 80
9 09/23/2025 20:22:58 0.13,-104.66 0.20,-104.30 40.65 80
10 09/26/2025 08:26:00 -0.13,-104.66 -0.07,-105.04 42.65 80
